weather.gov     
National Weather Service

Terminal Aerodrome Forecast
NWS Homepage
This page is being discontinued on March 12, 2014.
The same data is available at this site. Please update your bookmarks.
Thank you, and we apologize for the inconvenience.
Please send an email to SR-SRH.Webmaster@noaa.gov with any concerns.


Current Version
Previous Version:    01  02  03  04  05  06  07  08  09  10  11  12  13  14  15  16  17  18  19  20  21  
[Printable]
521
FTAK31 PAJN 301100
TAFAJN
TAF
PAJN 301138Z 3012/3112 VRB06KT P6SM -RA FEW030 BKN060 OVC100
     FM301500 08005KT 5SM -RA BR BKN025 OVC040
     FM310200 12008KT 6SM -SHRA BR SCT015 OVC025
     FM310600 12010KT 6SM BR VCSH BKN020 OVC035=


U.S. Dept. of Commerce
NOAA National Weather Service
1325 East West Highway
Silver Spring, MD 20910
E-mail: w-nws.webmaster@noaa.gov
Page last modified: May 16, 2007
NATIONAL WEATHER SERVICE: for Safety, for Work, for Fun - FOR LIFE